Torna al catalogo

FLOCK 4G 21

AttivoScienzaSSO
NORAD 62651·PAYLOAD·🇺🇸 United States

Lanciato Jan 14, 2025 da Vandenberg Space Force Base

Loading…

Prossimi Passaggi (prossime 24 ore)

TLE

AggiornatoSource: Space-Track

Epoca: Sep 14, 2026, 15:41 UTC

1 62651U 25009AU  26257.65409937  .00035788  00000-0  98881-3 0  9999
2 62651  97.3934 340.2821 0001509  32.4186 327.7151 15.36962797 92671

Traccia FLOCK 4G 21 in tempo reale con AllMySat

Download on the App Store